This is the latest recevied weather packets stored in our database for station/object KG5MMT-12. If no packets are shown the sender has not sent any weather packets the latest 10 day(s).
| Time | Temp. | Humidity | Pressure | Rain* | Wind** | Luminosity | Snow |
|---|---|---|---|---|---|---|---|
| 1777829636 | 17.22° C | 21% | 0 hPa | 0 mm | - | - | - |
| 1777829335 | 17.22° C | 19% | 0 hPa | 0 mm | - | - | - |
| 1777829034 | 17.22° C | 22% | 0 hPa | 0 mm | - | - | - |
| 1777828776 | 16.11° C | 24% | 0 hPa | 0 mm | - | - | - |
| 1777828735 | 16.67° C | 21% | 0 hPa | 0 mm | - | - | - |
| 1777828435 | 16.67° C | 22% | 0 hPa | 0 mm | - | - | - |
| 1777828135 | 16.11° C | 24% | 0 hPa | 0 mm | - | - | - |
| 1777827835 | 16.67° C | 26% | 0 hPa | 0 mm | - | - | - |
| 1777827612 | 16.11° C | 26% | 0 hPa | 0 mm | - | - | - |
| 1777827535 | 16.11° C | 26% | 0 hPa | 0 mm | - | - | - |
| 1777827436 | 16.11° C | 25% | 0 hPa | 0 mm | - | - | - |
| 1777827235 | 16.11° C | 25% | 0 hPa | 0 mm | - | - | - |
| 1777826935 | 16.67° C | 27% | 0 hPa | 0 mm | - | - | - |
| 1777826635 | 16.67° C | 25% | 0 hPa | 0 mm | - | - | - |
| 1777826335 | 16.11° C | 22% | 0 hPa | 0 mm | - | - | - |
| 1777826036 | 16.67° C | 23% | 0 hPa | 0 mm | - | - | - |
| 1777825735 | 16.11° C | 22% | 0 hPa | 0 mm | - | - | - |
| 1777825435 | 16.11° C | 25% | 0 hPa | 0 mm | - | - | - |
| 1777825135 | 16.11° C | 20% | 0 hPa | 0 mm | - | - | - |
| 1777824835 | 16.11° C | 25% | 0 hPa | 0 mm | - | - | - |
| 1777824535 | 16.11° C | 24% | 0 hPa | 0 mm | - | - | - |
| 1777824235 | 15.56° C | 28% | 0 hPa | 0 mm | - | - | - |
| 1777823935 | 15.56° C | 25% | 0 hPa | 0 mm | - | - | - |
| 1777823635 | 15° C | 23% | 0 hPa | 0 mm | - | - | - |
| 1777823336 | 15.56° C | 24% | 0 hPa | 0 mm | - | - | - |
* Rain latest hour (hover to see other rain measurements)
** Current wind speed in m/s (hover to see current wind gust speed)